DLH595 DNAA-EDDF

Flight info

Callsign DLH595
Flight time N/A
Altitude 39000
Route OXORU1Q OXORU DCT MIMBA/N0457F380 UA604 ILBIP/N0457F400 UA604 AS UR978 CSO UA605 CIRTA DCT ERETI DCT OMARD DCT NOSTA DCT NOPMU DCT ABESI DCT LADOL T163 EMPAX EMPAX5C
Aircraft A343/H-SDE2E3FGHIJ3J5M1P2RWXYZ/LB1D1

Departure

Time 2026-04-28 08:57
Airport Nnamdi Azikiwe International Airport (DNAA)

Arrival

Time N/A
Airport Frankfurt Main Airport (EDDF)
Time Latitude Longitude Altitude Speed Heading
2026-04-28 07:12 9.01048 7.27009 1141 ft 0 kts 182°
2026-04-28 08:48 9.01056 7.27010 1138 ft 1 kts 194°
2026-04-28 08:48 9.01077 7.27017 1143 ft 4 kts 222°
2026-04-28 08:48 9.01088 7.27037 1142 ft 4 kts 272°
2026-04-28 08:49 9.01082 7.27060 1140 ft 4 kts 308°
2026-04-28 08:49 9.01069 7.27073 1142 ft 0 kts 333°
2026-04-28 08:52 9.01075 7.27072 1140 ft 4 kts 344°
2026-04-28 08:52 9.01131 7.27065 1139 ft 9 kts 352°
2026-04-28 08:52 9.01180 7.27047 1143 ft 5 kts 314°
2026-04-28 08:52 9.01188 7.26992 1143 ft 11 kts 263°
2026-04-28 08:53 9.01173 7.26913 1143 ft 10 kts 264°
2026-04-28 08:53 9.01185 7.26896 1142 ft 1 kts 335°
2026-04-28 08:53 9.01207 7.26901 1140 ft 7 kts 20°
2026-04-28 08:53 9.01258 7.26933 1143 ft 11 kts 33°
2026-04-28 08:54 9.01329 7.26982 1145 ft 14 kts 35°
2026-04-28 08:54 9.01410 7.27040 1145 ft 14 kts 35°
2026-04-28 08:54 9.01492 7.27097 1146 ft 14 kts 34°
2026-04-28 08:54 9.01581 7.27161 1147 ft 17 kts 36°
2026-04-28 08:55 9.01674 7.27226 1148 ft 16 kts 34°
2026-04-28 08:55 9.01766 7.27291 1149 ft 16 kts 35°
2026-04-28 08:55 9.01858 7.27352 1146 ft 14 kts 31°
2026-04-28 08:55 9.01927 7.27352 1148 ft 8 kts 326°
2026-04-28 08:56 9.01964 7.27306 1150 ft 9 kts 305°
2026-04-28 08:56 9.01989 7.27252 1148 ft 8 kts 271°
2026-04-28 08:56 9.01970 7.27226 1148 ft 8 kts 219°
2026-04-28 08:56 9.01805 7.27108 1150 ft 58 kts 215°
2026-04-28 08:57 9.01314 7.26764 1145 ft 112 kts 215°
2026-04-28 08:57 9.00546 7.26224 1136 ft 155 kts 214°
2026-04-28 08:57 8.99596 7.25563 1427 ft 171 kts 214°
2026-04-28 08:57 8.98606 7.24901 2018 ft 171 kts 211°
2026-04-28 08:58 8.97518 7.24331 2439 ft 187 kts 209°
2026-04-28 08:58 8.96323 7.23619 2779 ft 207 kts 219°
2026-04-28 08:58 8.95469 7.22424 3337 ft 220 kts 256°
2026-04-28 08:58 8.95609 7.20913 4153 ft 220 kts 296°
2026-04-28 08:59 8.96625 7.19739 4768 ft 231 kts 319°
2026-04-28 08:59 8.98027 7.18788 5108 ft 255 kts 339°
2026-04-28 08:59 8.99807 7.18581 5714 ft 263 kts
2026-04-28 08:59 9.01628 7.18866 6511 ft 267 kts 12°
2026-04-28 09:00 9.03461 7.19235 7299 ft 270 kts 14°
2026-04-28 09:00 9.05303 7.19624 8147 ft 271 kts 15°
2026-04-28 09:00 9.07149 7.20017 9023 ft 271 kts 16°
2026-04-28 09:00 9.08995 7.20411 9900 ft 271 kts 17°
2026-04-28 09:01 9.10872 7.20817 10468 ft 284 kts 17°
2026-04-28 09:01 9.12871 7.21253 10799 ft 303 kts 16°
2026-04-28 09:01 9.14997 7.21714 11102 ft 321 kts 16°
2026-04-28 09:01 9.17230 7.22193 11528 ft 333 kts 15°
2026-04-28 09:02 9.19521 7.22683 12089 ft 340 kts 15°
2026-04-28 09:02 9.21825 7.23175 12682 ft 346 kts 15°
2026-04-28 09:02 9.24201 7.23683 13296 ft 352 kts 15°
2026-04-28 09:02 9.26643 7.24206 13918 ft 357 kts 15°
2026-04-28 09:03 9.29089 7.24731 14475 ft 362 kts 15°
2026-04-28 09:03 9.31572 7.25264 15030 ft 367 kts 14°
2026-04-28 09:03 9.34057 7.25798 15589 ft 372 kts 14°
2026-04-28 09:03 9.36603 7.26345 16146 ft 377 kts 14°
2026-04-28 09:04 9.42356 7.27581 17446 ft 387 kts 13°
2026-04-28 09:04 9.44105 7.27957 17817 ft 390 kts 13°
2026-04-28 09:04 9.46781 7.28532 18350 ft 395 kts 13°
2026-04-28 09:05 9.49490 7.29115 18848 ft 399 kts 13°
2026-04-28 09:05 9.52216 7.29701 19376 ft 402 kts 13°
2026-04-28 09:05 9.54962 7.30292 19881 ft 405 kts 13°
2026-04-28 09:05 9.57733 7.30889 20406 ft 408 kts 13°
2026-04-28 09:06 9.60524 7.31490 20883 ft 412 kts 13°
2026-04-28 09:06 9.63334 7.32094 21390 ft 415 kts 13°
2026-04-28 09:06 9.66167 7.32705 21873 ft 418 kts 13°
2026-04-28 09:06 9.69026 7.33321 22350 ft 421 kts 13°
2026-04-28 09:07 9.71903 7.33941 22827 ft 424 kts 13°
2026-04-28 09:07 9.74805 7.34566 23266 ft 428 kts 13°
2026-04-28 09:07 9.77729 7.35196 23682 ft 431 kts 12°
2026-04-28 09:07 9.80677 7.35832 24045 ft 435 kts 12°
2026-04-28 09:08 9.83642 7.36471 24451 ft 437 kts 12°
2026-04-28 09:08 9.86612 7.37157 24837 ft 439 kts 15°
2026-04-28 09:08 9.89564 7.37985 25236 ft 441 kts 17°
2026-04-28 09:08 9.92509 7.38886 25635 ft 443 kts 18°
2026-04-28 09:09 9.95460 7.39827 26011 ft 446 kts 18°
2026-04-28 09:09 9.98425 7.40782 26400 ft 448 kts 18°
2026-04-28 09:09 10.01405 7.41740 26762 ft 450 kts 18°
2026-04-28 09:09 10.04402 7.42696 27143 ft 452 kts 18°
2026-04-28 09:10 10.07375 7.43639 27482 ft 455 kts 18°
2026-04-28 09:10 10.10444 7.44608 27862 ft 457 kts 18°
2026-04-28 09:10 10.13448 7.45553 28190 ft 459 kts 18°
2026-04-28 09:10 10.16506 7.46514 28541 ft 461 kts 17°
2026-04-28 09:11 10.19581 7.47480 28882 ft 463 kts 18°
2026-04-28 09:11 10.22672 7.48451 29224 ft 466 kts 18°
2026-04-28 09:11 10.25779 7.49427 29539 ft 468 kts 18°
2026-04-28 09:11 10.28897 7.50408 29851 ft 470 kts 18°
2026-04-28 09:12 10.32029 7.51394 30143 ft 472 kts 18°
2026-04-28 09:12 10.35173 7.52384 30392 ft 474 kts 18°
2026-04-28 09:12 10.38332 7.53378 30634 ft 476 kts 18°
2026-04-28 09:12 10.41501 7.54377 30888 ft 478 kts 18°
2026-04-28 09:13 10.44685 7.55380 31133 ft 480 kts 18°
2026-04-28 09:13 10.47888 7.56389 31377 ft 482 kts 18°
2026-04-28 09:13 10.51098 7.57401 31605 ft 484 kts 17°
2026-04-28 09:13 10.54317 7.58415 31889 ft 484 kts 17°
2026-04-28 09:14 10.57485 7.59414 32222 ft 483 kts 17°
2026-04-28 09:14 10.60694 7.60426 32555 ft 482 kts 17°
2026-04-28 09:14 10.63900 7.61437 32853 ft 482 kts 17°
2026-04-28 09:14 10.67099 7.62446 33196 ft 481 kts 17°
2026-04-28 09:15 10.70291 7.63453 33504 ft 480 kts 17°
2026-04-28 09:15 10.73482 7.64461 33815 ft 480 kts 17°
2026-04-28 09:15 10.76668 7.65466 34096 ft 479 kts 17°
2026-04-28 09:15 10.79847 7.66470 34356 ft 479 kts 17°
2026-04-28 09:16 10.83032 7.67476 34595 ft 479 kts 17°
2026-04-28 09:16 10.86209 7.68480 34851 ft 478 kts 17°
2026-04-28 09:16 10.89385 7.69484 35093 ft 478 kts 17°
2026-04-28 09:16 10.92557 7.70486 35342 ft 477 kts 17°
2026-04-28 09:17 10.95724 7.71487 35586 ft 477 kts 17°
2026-04-28 09:17 10.98894 7.72490 35828 ft 476 kts 17°
2026-04-28 09:17 11.02065 7.73493 36055 ft 476 kts 17°
2026-04-28 09:17 11.05201 7.74485 36269 ft 476 kts 17°
2026-04-28 09:18 11.08369 7.75487 36491 ft 476 kts 17°
2026-04-28 09:18 11.11535 7.76489 36707 ft 475 kts 17°
2026-04-28 09:18 11.14670 7.77481 36929 ft 475 kts 18°
2026-04-28 09:18 11.17836 7.78484 37134 ft 475 kts 18°
2026-04-28 09:19 11.21000 7.79486 37349 ft 475 kts 17°
2026-04-28 09:19 11.24122 7.80475 37502 ft 475 kts 17°
2026-04-28 09:19 11.27286 7.81477 37686 ft 475 kts 17°
2026-04-28 09:19 11.30450 7.82480 37899 ft 475 kts 18°
2026-04-28 09:20 11.33619 7.83484 38090 ft 475 kts 18°
2026-04-28 09:20 11.36771 7.84484 38291 ft 474 kts 18°
2026-04-28 09:20 11.39930 7.85486 38477 ft 474 kts 18°
2026-04-28 09:20 11.43042 7.86473 38645 ft 474 kts 18°
2026-04-28 09:21 11.46192 7.87473 38784 ft 474 kts 18°
2026-04-28 09:21 11.49342 7.88472 38942 ft 473 kts 18°
2026-04-28 09:21 11.52490 7.89472 39075 ft 473 kts 18°
2026-04-28 09:21 11.55630 7.90469 39214 ft 473 kts 18°
2026-04-28 09:22 11.58778 7.91468 39346 ft 473 kts 18°
2026-04-28 09:22 11.61924 7.92468 39455 ft 473 kts 18°
2026-04-28 09:22 11.65072 7.93468 39581 ft 473 kts 18°
2026-04-28 09:22 11.68215 7.94467 39718 ft 473 kts 18°
2026-04-28 09:23 11.71360 7.95466 39841 ft 473 kts 18°
2026-04-28 09:23 11.77623 7.97458 39931 ft 477 kts 18°
2026-04-28 09:24 11.83984 7.99482 39928 ft 476 kts 18°
2026-04-28 09:24 11.90279 8.01486 39932 ft 474 kts 18°
2026-04-28 09:25 11.96600 8.03499 39934 ft 475 kts 18°
2026-04-28 09:25 12.02938 8.05518 39933 ft 477 kts 18°
2026-04-28 09:26 12.09240 8.07527 39927 ft 477 kts 18°
2026-04-28 09:26 12.15591 8.09553 39929 ft 477 kts 18°
2026-04-28 09:27 12.25069 8.12578 39923 ft 477 kts 18°
2026-04-28 09:27 12.31408 8.14602 39919 ft 477 kts 17°
2026-04-28 09:28 12.37762 8.16632 39914 ft 477 kts 17°
2026-04-28 09:28 12.44065 8.18647 39924 ft 477 kts 17°
2026-04-28 09:29 12.50426 8.20681 39917 ft 477 kts 17°
2026-04-28 09:29 12.56726 8.22697 39922 ft 477 kts 17°
2026-04-28 09:30 12.63081 8.24732 39922 ft 477 kts 17°
2026-04-28 09:30 12.69387 8.26752 39911 ft 477 kts 17°
2026-04-28 09:31 12.75729 8.28784 39915 ft 477 kts 17°
2026-04-28 09:31 12.82079 8.30820 39908 ft 477 kts 17°
2026-04-28 09:32 12.88400 8.32848 39922 ft 477 kts 17°
2026-04-28 09:32 12.94755 8.34888 39907 ft 478 kts 18°
2026-04-28 09:33 13.01116 8.36931 39910 ft 479 kts 17°
2026-04-28 09:33 13.07554 8.38668 39909 ft 479 kts
2026-04-28 09:34 13.14187 8.38731 39906 ft 477 kts 355°
2026-04-28 09:34 13.20809 8.38168 39916 ft 478 kts 353°
2026-04-28 09:35 13.27401 8.37507 39908 ft 478 kts 354°
2026-04-28 09:35 13.34025 8.36858 39909 ft 478 kts 354°
2026-04-28 09:36 13.40611 8.36235 39907 ft 476 kts 353°
2026-04-28 09:36 13.47218 8.35618 39904 ft 475 kts 353°
2026-04-28 09:37 13.53766 8.35006 39913 ft 475 kts 354°
2026-04-28 09:37 13.60361 8.34390 39916 ft 475 kts 353°
2026-04-28 09:38 13.66954 8.33772 39909 ft 473 kts 353°
2026-04-28 09:38 13.73481 8.33161 39914 ft 473 kts 353°
2026-04-28 09:39 13.80056 8.32547 39908 ft 472 kts 353°
2026-04-28 09:39 13.86572 8.31933 39903 ft 472 kts 353°
2026-04-28 09:40 13.93122 8.31314 39911 ft 472 kts 353°
2026-04-28 09:40 13.99641 8.30699 39903 ft 472 kts 353°
2026-04-28 09:41 14.06195 8.30081 39905 ft 472 kts 353°
2026-04-28 09:41 14.12748 8.29464 39913 ft 472 kts 353°
2026-04-28 09:42 14.19284 8.28847 39918 ft 472 kts 353°
2026-04-28 09:42 14.25813 8.28231 39916 ft 472 kts 353°
2026-04-28 09:43 14.32364 8.27612 39910 ft 472 kts 353°
2026-04-28 09:43 14.38919 8.26992 39913 ft 472 kts 353°
2026-04-28 09:44 14.45438 8.26376 39904 ft 472 kts 353°
2026-04-28 09:44 14.51988 8.25756 39916 ft 472 kts 353°
2026-04-28 09:45 14.58513 8.25139 39916 ft 472 kts 353°
2026-04-28 09:45 14.65072 8.24517 39915 ft 472 kts 353°
2026-04-28 09:46 14.71635 8.23895 39913 ft 472 kts 353°
2026-04-28 09:46 14.78146 8.23278 39923 ft 472 kts 352°
2026-04-28 09:47 14.84700 8.22656 39906 ft 471 kts 352°
2026-04-28 09:47 14.91238 8.22035 39917 ft 471 kts 352°
2026-04-28 09:48 14.97730 8.21418 39919 ft 471 kts 352°
2026-04-28 09:48 15.04270 8.20796 39906 ft 471 kts 352°
2026-04-28 09:49 15.10760 8.20180 39920 ft 471 kts 352°
2026-04-28 09:49 15.17300 8.19561 39911 ft 471 kts 352°
2026-04-28 09:50 15.23835 8.18942 39924 ft 470 kts 352°
2026-04-28 09:50 15.30330 8.18325 39920 ft 470 kts 352°
2026-04-28 09:51 15.36861 8.17705 39921 ft 470 kts 352°
2026-04-28 09:51 15.43346 8.17089 39927 ft 470 kts 352°
2026-04-28 09:52 15.48781 8.16572 39922 ft 470 kts 352°
2026-04-28 09:52 15.55317 8.15951 39923 ft 471 kts 352°
2026-04-28 09:53 15.61847 8.15329 39926 ft 471 kts 352°
2026-04-28 09:53 15.68349 8.14710 39920 ft 471 kts 352°
2026-04-28 09:54 15.74888 8.14086 39922 ft 471 kts 352°
2026-04-28 09:54 15.81388 8.13467 39917 ft 471 kts 352°
2026-04-28 09:55 15.87928 8.12843 39921 ft 471 kts 351°
2026-04-28 09:55 15.94481 8.12217 39922 ft 472 kts 351°
2026-04-28 09:56 16.01036 8.11590 39921 ft 473 kts 351°
2026-04-28 09:56 16.07563 8.10966 39931 ft 472 kts 351°
2026-04-28 09:57 16.14103 8.10341 39926 ft 473 kts 351°
2026-04-28 09:57 16.20669 8.09713 39923 ft 473 kts 351°
2026-04-28 09:58 16.27186 8.09089 39922 ft 473 kts 351°
2026-04-28 09:58 16.33753 8.08459 39922 ft 473 kts 351°
2026-04-28 09:59 16.40313 8.07829 39922 ft 471 kts 351°
2026-04-28 09:59 16.46796 8.07208 39922 ft 469 kts 351°
2026-04-28 10:00 16.53305 8.06582 39922 ft 469 kts 351°
2026-04-28 10:00 16.59806 8.05957 39923 ft 469 kts 350°
2026-04-28 10:01 16.66272 8.05335 39921 ft 469 kts 350°
2026-04-28 10:01 16.72782 8.04708 39922 ft 468 kts 350°
2026-04-28 10:02 16.79283 8.04082 39920 ft 468 kts 350°
2026-04-28 10:02 16.85741 8.03459 39920 ft 468 kts 350°
2026-04-28 10:03 16.92256 8.02831 39993 ft 468 kts 350°
2026-04-28 10:03 16.98720 8.02209 39993 ft 468 kts 350°
2026-04-28 10:04 17.05190 8.01669 39992 ft 469 kts 351°
2026-04-28 10:04 17.11714 8.01166 39976 ft 469 kts 351°
2026-04-28 10:05 17.18193 8.00659 39957 ft 468 kts 351°
2026-04-28 10:05 17.24712 8.00137 39952 ft 468 kts 351°
2026-04-28 10:06 17.31212 7.99613 39916 ft 467 kts 350°
2026-04-28 10:06 17.37664 7.99092 39913 ft 466 kts 350°
2026-04-28 10:07 17.44156 7.98568 39914 ft 467 kts 350°
2026-04-28 10:07 17.50634 7.98044 39908 ft 466 kts 350°
2026-04-28 10:08 17.57066 7.97524 39907 ft 466 kts 350°
2026-04-28 10:08 17.63563 7.96999 39909 ft 465 kts 350°
2026-04-28 10:09 17.69978 7.96481 39906 ft 464 kts 350°
2026-04-28 10:09 17.76428 7.95958 39906 ft 463 kts 350°
2026-04-28 10:10 17.82835 7.95438 39906 ft 463 kts 350°
2026-04-28 10:10 17.89245 7.94918 39904 ft 463 kts 350°
2026-04-28 10:11 17.95692 7.94395 39904 ft 463 kts 350°
2026-04-28 10:11 18.02143 7.93871 39906 ft 463 kts 350°
2026-04-28 10:12 18.08558 7.93349 39906 ft 463 kts 350°
2026-04-28 10:12 18.14960 7.92828 39904 ft 463 kts 350°
2026-04-28 10:13 18.21396 7.92305 39903 ft 463 kts 350°
2026-04-28 10:13 18.27830 7.91780 39911 ft 463 kts 349°
2026-04-28 10:14 18.34243 7.91257 39906 ft 464 kts 349°
2026-04-28 10:14 18.40707 7.90730 39907 ft 464 kts 349°
2026-04-28 10:15 18.47104 7.90208 39904 ft 464 kts 349°
2026-04-28 10:15 18.53566 7.89680 39902 ft 464 kts 349°
2026-04-28 10:16 18.60014 7.89152 39904 ft 464 kts 349°
2026-04-28 10:16 18.66426 7.88628 39903 ft 464 kts 349°
2026-04-28 10:17 18.72884 7.88099 39900 ft 464 kts 349°
2026-04-28 10:17 18.79302 7.87573 39900 ft 464 kts 349°
2026-04-28 10:18 18.85747 7.87045 39903 ft 464 kts 349°
2026-04-28 10:18 18.92175 7.86518 39904 ft 464 kts 349°
2026-04-28 10:19 18.98596 7.85989 39906 ft 464 kts 349°
2026-04-28 10:19 19.05051 7.85458 39902 ft 465 kts 349°
2026-04-28 10:20 19.11492 7.84928 39901 ft 465 kts 349°
2026-04-28 10:20 19.17962 7.84396 39902 ft 465 kts 349°
2026-04-28 10:21 19.24385 7.83867 39900 ft 465 kts 349°
2026-04-28 10:21 19.30861 7.83333 39907 ft 465 kts 349°
2026-04-28 10:22 19.37323 7.82799 39903 ft 465 kts 349°
2026-04-28 10:22 19.43751 7.82268 39905 ft 465 kts 349°
2026-04-28 10:23 19.50222 7.81733 39899 ft 465 kts 349°
2026-04-28 10:23 19.56654 7.81218 39902 ft 465 kts 349°
2026-04-28 10:24 19.63131 7.80706 39912 ft 465 kts 349°
2026-04-28 10:24 19.69598 7.80193 39903 ft 465 kts 349°
2026-04-28 10:25 19.76023 7.79683 39903 ft 465 kts 349°
2026-04-28 10:25 19.82501 7.79167 39906 ft 465 kts 349°
2026-04-28 10:26 19.88928 7.78655 39905 ft 465 kts 349°
2026-04-28 10:26 19.95416 7.78137 39903 ft 465 kts 349°
2026-04-28 10:27 20.01842 7.77624 39907 ft 466 kts 349°
2026-04-28 10:27 20.08333 7.77105 39908 ft 466 kts 349°
2026-04-28 10:28 20.14810 7.76587 39905 ft 466 kts 349°
2026-04-28 10:29 20.24490 7.75812 39905 ft 466 kts 349°
2026-04-28 10:29 20.30968 7.75293 39913 ft 466 kts 348°
2026-04-28 10:30 20.37426 7.74774 39902 ft 468 kts 348°
2026-04-28 10:30 20.43936 7.74251 39898 ft 469 kts 348°
2026-04-28 10:31 20.50411 7.73731 39898 ft 468 kts 348°
2026-04-28 10:31 20.56921 7.73207 39898 ft 469 kts 348°
2026-04-28 10:32 20.63428 7.72684 39910 ft 469 kts 348°
2026-04-28 10:32 20.69906 7.72162 39893 ft 469 kts 348°
2026-04-28 10:33 20.76423 7.71637 39895 ft 469 kts 348°
2026-04-28 10:33 20.82932 7.71112 39896 ft 468 kts 348°
2026-04-28 10:34 20.89405 7.70589 39894 ft 468 kts 348°
2026-04-28 10:34 20.95926 7.70061 39894 ft 468 kts 348°
2026-04-28 10:35 21.02402 7.69368 39905 ft 465 kts 345°
2026-04-28 10:35 21.08763 7.68406 39896 ft 464 kts 344°
2026-04-28 10:36 21.15176 7.67436 39903 ft 464 kts 344°
2026-04-28 10:36 21.21590 7.66514 39900 ft 465 kts 345°
2026-04-28 10:37 21.27969 7.65621 39907 ft 465 kts 345°
2026-04-28 10:37 21.34403 7.64722 39907 ft 465 kts 345°
2026-04-28 10:38 21.40786 7.63829 39907 ft 465 kts 345°
2026-04-28 10:38 21.47203 7.62928 39906 ft 465 kts 345°
2026-04-28 10:39 21.53617 7.62026 39903 ft 465 kts 345°
2026-04-28 10:39 21.58950 7.61276 39913 ft 465 kts 345°
2026-04-28 10:40 21.66409 7.60227 39914 ft 463 kts 344°
2026-04-28 10:40 21.71717 7.59482 39908 ft 460 kts 344°
2026-04-28 10:41 21.78075 7.58585 39907 ft 459 kts 344°
2026-04-28 10:41 21.84381 7.57692 39904 ft 460 kts 344°
2026-04-28 10:42 21.90722 7.56794 39910 ft 461 kts 344°
2026-04-28 10:42 21.97093 7.55894 39927 ft 461 kts 344°
2026-04-28 10:43 22.03453 7.54994 39913 ft 461 kts 344°
2026-04-28 10:43 22.09792 7.54096 39913 ft 461 kts 344°
2026-04-28 10:44 22.16167 7.53193 39918 ft 461 kts 344°
2026-04-28 10:44 22.22504 7.52294 39918 ft 460 kts 344°
2026-04-28 10:45 22.28874 7.51389 39949 ft 460 kts 343°
2026-04-28 10:45 22.35205 7.50488 39927 ft 461 kts 343°
2026-04-28 10:46 22.41590 7.49579 39922 ft 461 kts 343°
2026-04-28 10:46 22.47942 7.48675 39916 ft 461 kts 343°
2026-04-28 10:47 22.54273 7.47772 39913 ft 461 kts 343°
2026-04-28 10:47 22.60647 7.46862 39919 ft 461 kts 343°
2026-04-28 10:48 22.66992 7.45956 39918 ft 461 kts 343°
2026-04-28 10:48 22.73380 7.45043 39924 ft 461 kts 343°
2026-04-28 10:49 22.79708 7.44138 39922 ft 461 kts 343°
2026-04-28 10:49 22.86079 7.43225 39922 ft 461 kts 343°
2026-04-28 10:50 22.92415 7.42316 39925 ft 461 kts 343°
2026-04-28 10:50 22.98800 7.41400 39926 ft 462 kts 343°
2026-04-28 10:51 23.05155 7.40487 39924 ft 462 kts 343°
2026-04-28 10:51 23.11546 7.39568 39924 ft 462 kts 343°
2026-04-28 10:52 23.17901 7.38653 39927 ft 462 kts 343°
2026-04-28 10:52 23.24301 7.37731 39927 ft 463 kts 343°
2026-04-28 10:53 23.30668 7.36813 39927 ft 463 kts 342°
2026-04-28 10:53 23.37060 7.35891 39929 ft 463 kts 342°
2026-04-28 10:54 23.43418 7.34972 39931 ft 463 kts 342°
2026-04-28 10:54 23.49824 7.34045 39935 ft 463 kts 342°
2026-04-28 10:55 23.56255 7.33218 39934 ft 466 kts 345°
2026-04-28 10:55 23.62702 7.32583 39939 ft 467 kts 345°
2026-04-28 10:56 23.69187 7.31947 39936 ft 467 kts 345°
2026-04-28 10:56 23.75621 7.31284 39939 ft 467 kts 344°
2026-04-28 10:57 23.82104 7.30599 39941 ft 467 kts 344°
2026-04-28 10:57 23.88580 7.29912 39941 ft 466 kts 344°
2026-04-28 10:58 23.95014 7.29228 39946 ft 467 kts 344°
2026-04-28 10:58 24.01499 7.28539 39942 ft 468 kts 344°
2026-04-28 10:59 24.07959 7.27853 39940 ft 468 kts 344°
2026-04-28 10:59 24.14454 7.27162 39933 ft 468 kts 344°
2026-04-28 11:00 24.20942 7.26473 39932 ft 468 kts 344°
2026-04-28 11:00 24.27400 7.25786 39932 ft 468 kts 344°
2026-04-28 11:01 24.33895 7.25092 39927 ft 468 kts 344°
2026-04-28 11:01 24.40388 7.24398 39923 ft 468 kts 344°
2026-04-28 11:02 24.46843 7.23709 39926 ft 468 kts 344°
2026-04-28 11:02 24.53343 7.23014 39925 ft 468 kts 344°
2026-04-28 11:03 24.59803 7.22322 39928 ft 468 kts 344°
2026-04-28 11:03 24.66315 7.21624 39926 ft 468 kts 344°
2026-04-28 11:04 24.72768 7.20932 39933 ft 468 kts 344°
2026-04-28 11:04 24.79278 7.20233 39925 ft 468 kts 344°
2026-04-28 11:05 24.85732 7.19539 39945 ft 468 kts 344°
2026-04-28 11:05 24.92237 7.18838 39933 ft 469 kts 344°
2026-04-28 11:06 24.98740 7.18141 39937 ft 469 kts 344°
2026-04-28 11:06 25.05212 7.17446 39942 ft 469 kts 344°
2026-04-28 11:07 25.11727 7.16745 39944 ft 469 kts 344°
2026-04-28 11:07 25.18226 7.16043 39954 ft 469 kts 344°
2026-04-28 11:08 25.24687 7.15346 39952 ft 469 kts 343°
2026-04-28 11:08 25.31192 7.14643 39953 ft 469 kts 344°
2026-04-28 11:09 25.37651 7.13945 39955 ft 469 kts 344°
2026-04-28 11:09 25.44162 7.13240 39952 ft 469 kts 344°
2026-04-28 11:10 25.50633 7.12540 39963 ft 469 kts 343°
2026-04-28 11:10 25.57150 7.11833 39965 ft 470 kts 343°
2026-04-28 11:11 25.63658 7.11128 39962 ft 470 kts 343°
2026-04-28 11:11 25.70139 7.10423 39976 ft 470 kts 343°
2026-04-28 11:12 25.76666 7.09713 39979 ft 470 kts 343°
2026-04-28 11:12 25.83147 7.09007 39972 ft 470 kts 343°
2026-04-28 11:13 25.89682 7.08296 39970 ft 470 kts 343°
2026-04-28 11:13 25.96162 7.07588 39970 ft 471 kts 343°
2026-04-28 11:14 26.02697 7.06878 39965 ft 471 kts 343°
2026-04-28 11:14 26.09238 7.06181 39996 ft 472 kts 343°
2026-04-28 11:15 26.15741 7.05484 39967 ft 471 kts 343°
2026-04-28 11:15 26.22279 7.04781 39964 ft 471 kts 343°
2026-04-28 11:16 26.28813 7.04079 39954 ft 471 kts 343°
2026-04-28 11:16 26.35304 7.03381 39958 ft 471 kts 343°
2026-04-28 11:17 26.41842 7.02678 39958 ft 471 kts 343°
2026-04-28 11:17 26.48321 7.01981 39949 ft 470 kts 343°
2026-04-28 11:18 26.54844 7.01277 39950 ft 470 kts 343°
2026-04-28 11:18 26.61322 7.00566 39954 ft 470 kts 343°
2026-04-28 11:19 26.67853 6.99862 39946 ft 470 kts 343°
2026-04-28 11:19 26.74389 6.99164 39960 ft 470 kts 343°
2026-04-28 11:20 26.80862 6.98465 39954 ft 469 kts 343°
2026-04-28 11:20 26.87359 6.97757 39956 ft 469 kts 343°
2026-04-28 11:21 26.93852 6.97034 39954 ft 468 kts 343°
2026-04-28 11:21 27.00344 6.96335 39997 ft 468 kts 343°
2026-04-28 11:22 27.06808 6.95637 39954 ft 468 kts 343°
2026-04-28 11:22 27.13296 6.94932 39955 ft 467 kts 343°
2026-04-28 11:23 27.19785 6.94224 39958 ft 467 kts 343°
2026-04-28 11:23 27.26229 6.93519 39958 ft 467 kts 343°
2026-04-28 11:24 27.32712 6.92809 39970 ft 467 kts 343°
2026-04-28 11:24 27.39192 6.92099 39961 ft 467 kts 343°
2026-04-28 11:25 27.45637 6.91393 39965 ft 467 kts 343°
2026-04-28 11:25 27.52124 6.90680 39964 ft 467 kts 343°
2026-04-28 11:26 27.58598 6.89969 39967 ft 467 kts 343°
2026-04-28 11:26 27.65053 6.89259 39966 ft 467 kts 343°
2026-04-28 11:27 27.70444 6.88664 39972 ft 467 kts 343°
2026-04-28 11:27 27.76892 6.87953 39969 ft 467 kts 343°
2026-04-28 11:28 27.84444 6.87118 39969 ft 467 kts 343°
2026-04-28 11:28 27.89836 6.86522 40000 ft 468 kts 344°
2026-04-28 11:29 27.96322 6.85805 39968 ft 466 kts 344°
2026-04-28 11:29 28.02776 6.85091 39976 ft 466 kts 343°
2026-04-28 11:30 28.09201 6.84376 39977 ft 466 kts 344°
2026-04-28 11:30 28.19037 6.83838 39980 ft 474 kts 349°
2026-04-28 11:31 28.25623 6.83762 39975 ft 474 kts 350°
2026-04-28 11:31 28.32238 6.83712 39978 ft 474 kts 350°
2026-04-28 11:32 28.38815 6.83654 39988 ft 474 kts 350°
2026-04-28 11:32 28.45416 6.83587 39987 ft 474 kts 350°
2026-04-28 11:33 28.52017 6.83518 39997 ft 473 kts 350°
2026-04-28 11:33 28.58585 6.83450 39984 ft 473 kts 350°
2026-04-28 11:34 28.65137 6.83381 39985 ft 473 kts 350°
2026-04-28 11:34 28.71738 6.83312 39985 ft 473 kts 350°
2026-04-28 11:35 28.78332 6.83243 39986 ft 473 kts 350°
2026-04-28 11:35 28.84888 6.83174 39988 ft 473 kts 351°
2026-04-28 11:36 28.91488 6.83106 39985 ft 473 kts 351°
2026-04-28 11:36 28.98043 6.83038 39986 ft 473 kts 350°
2026-04-28 11:37 29.04642 6.82968 39980 ft 473 kts 350°
2026-04-28 11:37 29.11206 6.82898 39988 ft 473 kts 351°
2026-04-28 11:38 29.17778 6.82833 39981 ft 471 kts 351°
2026-04-28 11:38 29.24303 6.82763 39992 ft 470 kts 351°
2026-04-28 11:39 29.30869 6.82692 39986 ft 471 kts 351°
2026-04-28 11:39 29.37385 6.82623 39998 ft 471 kts 351°
2026-04-28 11:40 29.43963 6.82553 39988 ft 471 kts 351°
2026-04-28 11:40 29.50482 6.82485 39987 ft 471 kts 351°
2026-04-28 11:41 29.57050 6.82417 39988 ft 471 kts 351°
2026-04-28 11:41 29.63574 6.82347 39987 ft 471 kts 351°
2026-04-28 11:42 29.70140 6.82276 39988 ft 471 kts 351°
2026-04-28 11:42 29.76669 6.82207 39981 ft 470 kts 351°
2026-04-28 11:43 29.83246 6.82136 39980 ft 470 kts 351°
2026-04-28 11:43 29.89767 6.82066 39976 ft 471 kts 351°
2026-04-28 11:44 29.96331 6.81997 39978 ft 471 kts 351°
2026-04-28 11:44 30.02858 6.81927 39970 ft 471 kts 351°
2026-04-28 11:45 30.09427 6.81857 39971 ft 471 kts 351°
2026-04-28 11:45 30.15989 6.81787 39960 ft 471 kts 351°
2026-04-28 11:46 30.22513 6.81717 39969 ft 471 kts 352°
2026-04-28 11:46 30.29093 6.81644 39953 ft 473 kts 352°
2026-04-28 11:47 30.35697 6.81573 39947 ft 474 kts 352°
2026-04-28 11:47 30.42261 6.81503 39947 ft 474 kts 352°
2026-04-28 11:48 30.48881 6.81432 39939 ft 474 kts 352°
2026-04-28 11:48 30.55445 6.81362 39938 ft 474 kts 352°
2026-04-28 11:49 30.62051 6.81291 39934 ft 474 kts 352°
2026-04-28 11:49 30.68665 6.81219 39933 ft 474 kts 352°
2026-04-28 11:50 30.75224 6.81148 39932 ft 474 kts 352°
2026-04-28 11:50 30.81841 6.81075 39922 ft 476 kts 352°
2026-04-28 11:51 30.88448 6.81002 39924 ft 478 kts 352°
2026-04-28 11:51 30.95106 6.80930 39916 ft 478 kts 352°
2026-04-28 11:52 31.01737 6.80858 39911 ft 478 kts 352°
2026-04-28 11:52 31.08408 6.80786 39927 ft 478 kts 352°
2026-04-28 11:53 31.15083 6.80712 39909 ft 480 kts 352°
2026-04-28 11:53 31.21736 6.80639 39907 ft 480 kts 352°
2026-04-28 11:54 31.28434 6.80566 39902 ft 480 kts 352°
2026-04-28 11:54 31.35101 6.80494 39914 ft 480 kts 352°
2026-04-28 11:55 31.41768 6.80421 39891 ft 481 kts 352°
2026-04-28 11:55 31.48475 6.80346 39889 ft 481 kts 352°
2026-04-28 11:56 31.55179 6.80273 39885 ft 481 kts 352°
2026-04-28 11:56 31.61883 6.80199 39906 ft 481 kts 352°
2026-04-28 11:57 31.68546 6.80125 39890 ft 481 kts 352°
2026-04-28 11:57 31.75264 6.80050 39889 ft 481 kts 352°
2026-04-28 11:58 31.81966 6.79976 39889 ft 481 kts 352°
2026-04-28 11:58 31.88649 6.79901 39889 ft 481 kts 352°
2026-04-28 11:59 31.95371 6.79826 39895 ft 482 kts 352°
2026-04-28 11:59 32.02056 6.79752 39897 ft 482 kts 352°
2026-04-28 12:00 32.08783 6.79677 39899 ft 483 kts 352°
2026-04-28 12:00 32.15462 6.79602 39900 ft 483 kts 352°
2026-04-28 12:01 32.22189 6.79527 39903 ft 483 kts 352°
2026-04-28 12:01 32.28929 6.79452 39903 ft 483 kts 352°
2026-04-28 12:02 32.35666 6.79376 39903 ft 483 kts 352°
2026-04-28 12:02 32.42360 6.79300 39903 ft 483 kts 352°
2026-04-28 12:03 32.49104 6.79225 39906 ft 483 kts 352°
2026-04-28 12:03 32.55804 6.79149 39905 ft 484 kts 352°
2026-04-28 12:04 32.62553 6.79072 39903 ft 484 kts 352°
2026-04-28 12:04 32.69263 6.78997 39903 ft 484 kts 352°
2026-04-28 12:05 32.76020 6.78920 39905 ft 484 kts 352°
2026-04-28 12:05 32.82722 6.78844 39911 ft 484 kts 352°
2026-04-28 12:06 32.89473 6.78768 39906 ft 484 kts 352°
2026-04-28 12:06 32.96217 6.78691 39908 ft 484 kts 352°
2026-04-28 12:07 33.02919 6.78614 39911 ft 484 kts 352°
2026-04-28 12:07 33.09671 6.78538 39909 ft 484 kts 352°
2026-04-28 12:08 33.16377 6.78461 39913 ft 484 kts 352°
2026-04-28 12:08 33.23132 6.78383 39918 ft 484 kts 352°
2026-04-28 12:09 33.29840 6.78306 39925 ft 484 kts 352°
2026-04-28 12:09 33.36588 6.78229 39931 ft 484 kts 352°
2026-04-28 12:10 33.43299 6.78152 39938 ft 484 kts 352°
2026-04-28 12:10 33.50049 6.78074 39955 ft 484 kts 352°
2026-04-28 12:11 33.56767 6.77857 39932 ft 481 kts 349°
2026-04-28 12:11 33.63415 6.77394 39929 ft 480 kts 349°
2026-04-28 12:12 33.70058 6.76928 39931 ft 480 kts 349°
2026-04-28 12:12 33.76756 6.76498 39915 ft 480 kts 349°
2026-04-28 12:13 33.83438 6.76091 39913 ft 480 kts 349°
2026-04-28 12:13 33.90080 6.75689 39911 ft 480 kts 349°
2026-04-28 12:14 33.96763 6.75282 39911 ft 480 kts 349°
2026-04-28 12:14 34.03444 6.74874 39923 ft 480 kts 349°
2026-04-28 12:15 34.10123 6.74464 39906 ft 480 kts 349°
2026-04-28 12:15 34.16760 6.74056 39907 ft 480 kts 349°
2026-04-28 12:16 34.23441 6.73642 39908 ft 480 kts 349°
2026-04-28 12:16 34.28989 6.73279 39921 ft 479 kts 349°
2026-04-28 12:17 34.35659 6.72788 39938 ft 478 kts 348°
2026-04-28 12:17 34.42277 6.72225 39910 ft 479 kts 348°
2026-04-28 12:18 34.48932 6.71611 39927 ft 478 kts 348°
2026-04-28 12:18 34.55519 6.70946 39961 ft 477 kts 347°
2026-04-28 12:19 34.62134 6.70191 39929 ft 477 kts 346°
2026-04-28 12:19 34.68745 6.69337 39901 ft 477 kts 346°
2026-04-28 12:20 34.75299 6.68419 39944 ft 475 kts 345°
2026-04-28 12:20 34.81864 6.67420 39979 ft 474 kts 345°
2026-04-28 12:21 34.88429 6.66357 39927 ft 476 kts 345°
2026-04-28 12:21 34.94989 6.65349 39973 ft 477 kts 345°
2026-04-28 12:22 35.01594 6.64453 40016 ft 477 kts 346°
2026-04-28 12:22 35.08227 6.63646 39979 ft 478 kts 347°
2026-04-28 12:23 35.14816 6.62773 39910 ft 479 kts 346°
2026-04-28 12:23 35.21418 6.61729 39961 ft 476 kts 344°
2026-04-28 12:24 35.27959 6.60501 39987 ft 474 kts 343°
2026-04-28 12:24 35.34443 6.59195 39972 ft 475 kts 343°
2026-04-28 12:25 35.41029 6.57953 39829 ft 478 kts 344°
2026-04-28 12:25 35.47626 6.56760 39853 ft 477 kts 344°
2026-04-28 12:26 35.54144 6.55531 39975 ft 474 kts 343°
2026-04-28 12:26 35.60667 6.54202 39968 ft 475 kts 342°
2026-04-28 12:27 35.67198 6.52737 39847 ft 477 kts 341°
2026-04-28 12:27 35.73676 6.51113 39894 ft 475 kts 340°
2026-04-28 12:28 35.80060 6.49338 39995 ft 470 kts 339°
2026-04-28 12:28 35.86409 6.47315 39853 ft 469 kts 336°
2026-04-28 12:29 35.92639 6.44967 39719 ft 471 kts 334°
2026-04-28 12:29 35.95747 6.43670 39680 ft 471 kts 333°
2026-04-28 12:30 36.01883 6.40901 39767 ft 467 kts 331°
2026-04-28 12:30 36.07888 6.37919 39878 ft 462 kts 329°
2026-04-28 12:31 36.13765 6.34764 39777 ft 464 kts 328°
2026-04-28 12:31 36.19638 6.31380 39690 ft 465 kts 327°
2026-04-28 12:32 36.25415 6.27826 39790 ft 460 kts 325°
2026-04-28 12:32 36.31041 6.24158 39834 ft 458 kts 324°
2026-04-28 12:33 36.36588 6.20252 39724 ft 458 kts 322°
2026-04-28 12:33 36.41964 6.16077 39706 ft 457 kts 319°
2026-04-28 12:34 36.47218 6.11670 39831 ft 452 kts 317°
2026-04-28 12:34 36.52280 6.07151 39851 ft 450 kts 316°
2026-04-28 12:34 36.54808 6.04807 39744 ft 453 kts 316°
2026-04-28 12:35 36.57333 6.02414 39629 ft 455 kts 315°
2026-04-28 12:35 36.62276 5.97541 39606 ft 455 kts 314°
2026-04-28 12:36 36.67096 5.92474 39746 ft 450 kts 312°
2026-04-28 12:36 36.71747 5.87335 39791 ft 448 kts 311°
2026-04-28 12:37 36.76336 5.82035 39677 ft 450 kts 310°
2026-04-28 12:37 36.80847 5.76635 39703 ft 449 kts 309°
2026-04-28 12:38 36.85252 5.71188 39790 ft 445 kts 308°
2026-04-28 12:38 36.89596 5.65640 39719 ft 447 kts 307°
2026-04-28 12:38 36.91750 5.62806 39608 ft 449 kts 307°
2026-04-28 12:39 36.93883 5.59944 39565 ft 450 kts 306°
2026-04-28 12:39 36.98067 5.54173 39654 ft 447 kts 305°
2026-04-28 12:40 37.01271 5.49611 39775 ft 443 kts 304°
2026-04-28 12:40 37.05269 5.43726 39723 ft 443 kts 303°
2026-04-28 12:41 37.09245 5.37640 39588 ft 446 kts 302°
2026-04-28 12:41 37.13086 5.31530 39638 ft 444 kts 302°
2026-04-28 12:42 37.16796 5.25376 39600 ft 445 kts 301°
2026-04-28 12:42 37.20441 5.19066 39539 ft 446 kts 300°
2026-04-28 12:43 37.23960 5.12717 39582 ft 443 kts 298°
2026-04-28 12:43 37.27383 5.06289 39636 ft 441 kts 297°
2026-04-28 12:44 37.30702 4.99797 39605 ft 442 kts 296°
2026-04-28 12:44 37.33915 4.93246 39570 ft 442 kts 296°
2026-04-28 12:45 37.37022 4.86570 39536 ft 442 kts 294°
2026-04-28 12:45 37.40005 4.79795 39532 ft 442 kts 294°
2026-04-28 12:46 37.42855 4.72973 39494 ft 442 kts 292°
2026-04-28 12:46 37.45601 4.66050 39524 ft 441 kts 291°
2026-04-28 12:47 37.48237 4.59058 39573 ft 439 kts 290°
2026-04-28 12:47 37.50749 4.52034 39531 ft 440 kts 289°
2026-04-28 12:48 37.53145 4.44943 39442 ft 442 kts 288°
2026-04-28 12:48 37.55438 4.37761 39515 ft 440 kts 287°
2026-04-28 12:49 37.57593 4.30606 39593 ft 437 kts 286°
2026-04-28 12:49 37.59643 4.23370 39530 ft 438 kts 285°
2026-04-28 12:50 37.61588 4.16052 39470 ft 440 kts 284°
2026-04-28 12:50 37.63400 4.08716 39451 ft 440 kts 283°
2026-04-28 12:51 37.65095 4.01308 39512 ft 438 kts 282°
2026-04-28 12:51 37.66670 3.93858 39434 ft 440 kts 281°
2026-04-28 12:52 37.68126 3.86383 39373 ft 441 kts 280°
2026-04-28 12:52 37.69477 3.78827 39449 ft 439 kts 279°
2026-04-28 12:53 37.70705 3.71253 39439 ft 439 kts 278°